Regional Weather Roundup
Issued by NWS

Home | Current Version | Previous Version | Graphics & Text | Print | Product List | Glossary On
Versions: 1 2 3 4 5 6 7 8 9 10 11 12 13 14 15 16 17 18 19 20 21 22 23 24 25 26 27 28 29 30 31 32 33 34 35 36 37 38 39 40 41 42 43 44 45 46 47 48 49 50
000
ASUS45 KPSR 022100
RWRAZ

ARIZONA HOURLY REGIONAL WEATHER ROUNDUP
NATIONAL WEATHER SERVICE PHOENIX AZ
200 PM MST WED SEP 02 2015

NOTE: FAIR INDICATES FEW OR NO CLOUDS BELOW 12,000 FEET WITH NO
SIGNIFICANT WEATHER AND/OR OBSTRUCTIONS TO VISIBILITY.

AZZ001>003-036-022200-
NORTHWEST ARIZONA

CITY           SKY/WX    TMP DP  RH WIND       PRES   REMARKS
KINGMAN        FAIR      92  41  17 SW22G32   30.01F
$$

AZZ004>008-015-016-018-022200-
NORTH CENTRAL ARIZONA

CITY           SKY/WX    TMP DP  RH WIND       PRES   REMARKS
GRAND CANYON   FAIR      80  44  27 SW14G20   30.24F
WILLIAMS       FAIR      79  48  34 S14G24    30.30F
PRESCOTT       FAIR      83  47  28 SW15      30.14F
FLAGSTAFF      NOT AVBL
PAYSON         FAIR      82  48  30 S9G21     30.17F
PAGE           FAIR      91  46  21 N10       30.03F
$$

AZZ009>014-017-022200-
NORTHEAST ARIZONA

CITY           SKY/WX    TMP DP  RH WIND       PRES   REMARKS
WINSLOW        NOT AVBL
SAINT JOHNS    CLOUDY    72  58  61 CALM      30.20F THUNDER
WINDOW ROCK    FAIR      79  42  26 W10       30.26
SHOW LOW       FAIR      77  48  36 W14       30.25F
$$

AZZ023-022200-
GREATER PHOENIX AREA

CITY           SKY/WX    TMP DP  RH WIND       PRES   REMARKS
PHOENIX        PTSUNNY   99  48  17 CALM      29.86F
DEER VALLEY    FAIR      95  50  21 SE9       29.89F
SCOTTSDALE     FAIR      93  50  23 CALM      29.92F
MESA-FALCON    PTSUNNY   95  48  20 VRB5      29.90F
MESA-GATEWAY   PTSUNNY   97  52  21 CALM      29.91F
$$

AZZ027-028-022200-
SOUTHWEST MARICOPA COUNTY AND PINAL COUNTY

CITY           SKY/WX    TMP DP  RH WIND       PRES   REMARKS
CASA GRANDE    FAIR      97  54  23 S3        29.89F
GILA BEND      MOSUNNY  103  48  15 S13G21    29.83F HX 100
$$

AZZ503-504-507>509-022200-
SOUTHEAST ARIZONA

CITY           SKY/WX    TMP DP  RH WIND       PRES   REMARKS
TUCSON         FAIR      93  56  28 CALM      29.99F
DAVIS-MONTHAN  FAIR      91  55  29 VRB3      29.98F
RYAN FIELD     SUNNY     95  55  26 NW9       29.98F
NOGALES        FAIR      86  54  33 W6        30.08F
SIERRA VISTA   PTSUNNY   73  60  64 N2        30.14F
SAFFORD        FAIR      91  58  32 W12       29.99F
$$

AZZ020-021-025-026-031-022200-
SOUTHWEST ARIZONA

CITY           SKY/WX    TMP DP  RH WIND       PRES   REMARKS
YUMA           NOT AVBL
$$

CAZ031-033-041-043-047-048-061-022200-
SOUTHERN CALIFORNIA

CITY           SKY/WX    TMP DP  RH WIND       PRES   REMARKS
DOWNTOWN L.A.  FAIR      77  60  55 VRB3      29.93F
L.A. AIRPORT   FAIR      74  60  61 W13       29.95F
SAN DIEGO      PTSUNNY   75  58  55 SW9       29.97F
BURBANK        FAIR      78  59  51 S9        29.93
ONTARIO        FAIR      86  52  30 VRB6      29.93F
RIVERSIDE      FAIR      85  55  35 MISG      29.92F
PALM SPRINGS   FAIR      99  44  15 VRB3      29.82F
EL CENTRO NAS  PTSUNNY  100  45  15 SE9       29.79F
IMPERIAL       FAIR     100  48  17 VRB3      29.78F
BLYTHE         FAIR     100  52  19 S12G23    29.81F
$$

NVZ020-UTZ003-022200-
SOUTHERN NEVADA-UTAH

CITY           SKY/WX    TMP DP  RH WIND       PRES   REMARKS
LAS VEGAS      NOT AVBL
SALT LAKE CITY FAIR      90  42  18 S24G31    29.92F
$$

NMZ009-TXZ055-022200-
NEW MEXICO-WEST TEXAS

CITY           SKY/WX    TMP DP  RH WIND       PRES   REMARKS
ALBUQUERQUE    FAIR      88  45  22 S9        30.14F
EL PASO        PTSUNNY   97  41  14 S9        30.01F
$$


........................KEY........................
SKY/WX - SKY CONDITION/WEATHER
TMP    - TEMPERATURE IN FAHRENHEIT
DP     - DEW POINT IN FAHRENHEIT
RH     - RELATIVE HUMIDITY IN PERCENT
WIND   - DIRECTION AND SPEED IN MILES PER HOUR (MPH)
VRB    - VARIABLE WIND DIRECTION
PRES   - MEAN SEA LEVEL PRESSURE IN INCHES OF MERCURY
         F - FALLING PRESSURE   R - RISING PRESSURE
         S - STEADY PRESSURE
VSB    - VISIBILITY IN MILES
HX     - HEAT INDEX IN FAHRENHEIT
WCI    - WIND CHILL INDEX IN FAHRENHEIT
TC     - TEMPERATURE IN CELSIUS WHICH IS ALSO KNOWN AS
         TEMPERATURE IN CENTIGRADE
AFB    - AIR FORCE BASE
         LUKE AFB IS LUKE AIR FORCE BASE
         DAVIS-MONTHAN IS DAVIS-MONTHAN AIR FORCE BASE
NAS    - NAVAL AIR STATION
         EL CENTRO NAS IS EL CENTRO NAVAL AIR STATION
N/A    - NOT AVAILABLE



USA.gov is the U.S. government's official web portal to all federal, state and local government web resources and services.